FW1723 Weather Reports


Display with metric or nautical units.
time (UTC)temp
F
wind
direction
speed
MPH
gust
MPH
rain 1hr
in
rain 24hr
in
rain mn
in
humidity
%
barometer
mb
20220707094528 51 119 0.0 0.0 0.00 0.00 0.00 96 1017.5
20220707093027 51 119 1.0 2.0 0.00 0.00 0.00 96 1017.4
20220707091526 51 119 2.0 3.0 0.00 0.00 0.00 96 1017.5
20220707090028 50 119 1.0 3.0 0.00 0.00 0.00 96 1017.5
20220707084524 50 169 2.0 3.0 0.00 0.00 0.00 95 1017.6
20220707083024 51 170 0.0 0.0 0.00 0.00 0.00 95 1017.7
20220707081520 51 170 0.0 0.0 0.00 0.00 0.00 95 1017.7
20220707080029 52 170 0.0 0.0 0.00 0.00 0.00 95 1017.7
20220707074523 52 170 0.0 0.0 0.00 0.00 0.00 95 1017.9
20220707073017 52 170 0.0 0.0 0.00 0.00 0.00 95 1017.8
20220707071515 52 170 0.0 0.0 0.00 0.00 0.00 95 1017.8
20220707070014 52 170 0.0 0.0 0.00 0.00 0.00 95 1017.8
20220707064513 52 170 0.0 0.0 0.00 0.00 0.00 95 1017.8
20220707063012 53 170 0.0 0.0 0.00 0.00 0.00 95 1018.0
20220707061511 53 170 0.0 0.0 0.00 0.00 0.00 94 1017.9
20220707060018 53 160 0.0 0.0 0.00 0.00 0.00 94 1017.9
20220707054510 54 91 0.0 0.0 0.00 0.00 0.00 94 1017.9
20220707053013 54 91 0.0 0.0 0.00 0.00 0.00 94 1017.9
20220707051505 54 91 0.0 0.0 0.00 0.00 0.00 94 1017.9
20220707050004 54 91 0.0 0.0 0.00 0.00 0.00 94 1017.9
20220707044504 55 91 0.0 0.0 0.00 0.00 0.00 93 1017.9
20220707043059 56 91 0.0 0.0 0.00 0.00 0.00 93 1018.1
20220707041604 56 91 0.0 0.0 0.00 0.00 0.00 92 1018.3
20220707040055 57 91 0.0 0.0 0.00 0.00 0.00 92 1018.2
20220707034553 57 91 0.0 2.0 0.00 0.00 0.00 92 1018.2
20220707033056 58 91 0.0 0.0 0.00 0.00 0.00 92 1018.1
20220707031550 58 91 0.0 2.0 0.00 0.00 0.00 92 1018.0
20220707030049 58 91 2.0 4.0 0.00 0.00 0.00 91 1018.2
20220707024547 59 90 2.0 4.0 0.00 0.00 0.00 89 1018.1
20220707023100 59 90 2.0 4.0 0.00 0.00 0.00 89 1018.2
20220707021541 60 103 4.0 7.0 0.00 0.00 0.00 88 1017.9
20220707020043 61 90 4.0 6.0 0.00 0.00 0.00 87 1017.8
20220707014537 61 86 3.0 6.0 0.00 0.00 0.00 86 1017.6
20220707013039 62 92 1.0 4.0 0.00 0.00 0.00 85 1017.6
20220707011535 63 85 2.0 5.0 0.00 0.00 0.00 83 1017.6
20220707010040 64 107 3.0 6.0 0.00 0.00 0.00 82 1017.4
20220707004533 65 103 4.0 7.0 0.00 0.00 0.00 80 1017.5
20220707003033 65 93 2.0 4.0 0.00 0.00 0.00 79 1017.5
20220707001531 66 90 3.0 7.0 0.00 0.00 0.00 77 1017.4
20220707000030 67 101 3.0 8.0 0.00 0.00 0.00 76 1017.3
20220706234538 68 96 6.0 10.0 0.00 0.00 0.00 74 1017.3
20220706233035 68 76 6.0 8.0 0.00 0.00 0.00 74 1017.3
20220706231528 67 63 2.0 6.0 0.00 0.00 0.00 76 1017.2
20220706230032 68 54 4.0 8.0 0.00 0.00 0.00 74 1017.2
20220706224526 69 80 4.0 8.0 0.00 0.00 0.00 74 1017.1
20220706223026 69 84 4.0 12.0 0.00 0.00 0.00 73 1017.1
20220706221525 70 88 8.0 12.0 0.00 0.00 0.00 72 1016.9
20220706220023 69 81 9.0 13.0 0.00 0.00 0.00 72 1017.0
20220706214531 69 98 9.0 13.0 0.00 0.00 0.00 73 1017.0
20220706213019 68 87 5.0 12.0 0.00 0.00 0.00 74 1017.0
20220706211529 68 109 6.0 9.0 0.00 0.00 0.00 76 1017.2
20220706210018 67 76 6.0 9.0 0.00 0.00 0.00 77 1017.3
20220706204517 67 88 5.0 9.0 0.00 0.00 0.00 79 1017.4
20220706203032 67 59 3.0 7.0 0.00 0.00 0.00 80 1017.4
20220706201516 66 57 4.0 6.0 0.00 0.00 0.00 79 1017.3
20220706200016 67 55 5.0 12.0 0.00 0.00 0.00 77 1017.2
20220706194534 68 46 4.0 7.0 0.00 0.00 0.00 76 1017.1
20220706193015 67 44 4.0 9.0 0.00 0.00 0.00 78 1017.1
20220706191516 67 40 4.0 10.0 0.00 0.00 0.00 78 1017.2
20220706190013 67 30 9.0 13.0 0.00 0.00 0.00 78 1016.9
20220706184513 68 60 6.0 11.0 0.00 0.00 0.00 77 1017.0
20220706183012 68 96 4.0 10.0 0.00 0.00 0.00 79 1017.0
20220706181509 67 95 4.0 11.0 0.00 0.00 0.00 79 1017.2
20220706180010 67 70 6.0 9.0 0.00 0.00 0.00 79 1017.1
20220706174509 67 35 7.0 12.0 0.00 0.00 0.00 79 1017.0
20220706173008 67 41 3.0 9.0 0.00 0.00 0.00 82 1017.2
20220706171506 66 92 5.0 10.0 0.00 0.00 0.00 81 1017.2
20220706170006 65 82 4.0 11.0 0.00 0.00 0.00 84 1017.2
20220706164502 65 111 6.0 9.0 0.00 0.00 0.00 85 1017.3
20220706163001 64 87 4.0 9.0 0.00 0.00 0.00 86 1017.4
20220706161558 64 65 5.0 7.0 0.00 0.00 0.00 87 1017.4
20220706160057 63 56 5.0 10.0 0.00 0.00 0.00 89 1017.1
20220706154556 62 92 5.0 10.0 0.00 0.00 0.00 91 1017.0
20220706153053 62 95 6.0 12.0 0.00 0.00 0.00 92 1016.8
20220706151551 62 65 8.0 12.0 0.00 0.00 0.00 93 1016.6
20220706150046 63 67 8.0 12.0 0.00 0.00 0.00 92 1016.5
20220706144546 63 85 5.0 12.0 0.00 0.00 0.00 90 1016.4
20220706143045 64 59 6.0 13.0 0.00 0.00 0.00 88 1016.1
20220706141542 65 57 7.0 13.0 0.00 0.00 0.00 88 1016.0
20220706140039 64 69 7.0 13.0 0.00 0.00 0.00 88 1015.8
20220706134536 64 100 7.0 11.0 0.00 0.00 0.00 90 1015.9
20220706133034 64 80 8.0 12.0 0.00 0.00 0.00 91 1015.8
20220706131538 63 28 3.0 12.0 0.00 0.00 0.00 92 1015.8
20220706130029 63 69 6.0 10.0 0.00 0.00 0.00 92 1015.9
20220706124533 63 61 5.0 11.0 0.00 0.00 0.00 92 1015.6
20220706123025 63 28 4.0 10.0 0.00 0.00 0.00 91 1016.1
20220706121528 63 36 3.0 10.0 0.00 0.00 0.00 91 1015.8
20220706120032 63 59 5.0 11.0 0.00 0.00 0.00 91 1015.4
20220706114530 63 60 5.0 11.0 0.00 0.00 0.00 91 1015.3
20220706113014 63 24 6.0 10.0 0.00 0.00 0.00 91 1015.4
20220706111511 63 30 3.0 8.0 0.00 0.00 0.00 92 1015.1
20220706110010 63 70 2.0 5.0 0.00 0.00 0.00 93 1014.7
20220706104507 63 45 3.0 6.0 0.00 0.00 0.00 93 1015.0
20220706103005 63 37 2.0 5.0 0.00 0.00 0.00 93 1014.7
20220706101505 63 53 3.0 7.0 0.00 0.00 0.00 93 1014.6
20220706100000 63 56 3.0 6.0 0.00 0.00 0.00 92 1014.2